ON4CDJ-13 Weather Reports


Display with metric or nautical units.
time (UTC)temp
F
wind
direction
speed
MPH
gust
MPH
rain 1hr
in
rain 24hr
in
rain mn
in
humidity
%
barometer
mb
20260510074557 59 48 4.0 10.0 0.00 0.00 0.00 62 1016.3
20260510073540 59 94 3.0 9.0 0.00 0.00 0.00 64 1016.3
20260510072520 59 33 4.0 10.0 0.00 0.00 0.00 65 1016.3
20260510071608 59 112 2.0 7.0 0.00 0.00 0.00 67 1016.5
20260510070556 58 116 1.0 6.0 0.00 0.00 0.00 69 1016.5
20260510065553 57 28 2.0 7.0 0.00 0.00 0.00 70 1016.5
20260510064617 57 15 3.0 7.0 0.00 0.00 0.00 72 1016.4
20260510063559 56 93 3.0 10.0 0.00 0.00 0.00 72 1016.5
20260510062536 56 110 2.0 7.0 0.00 0.00 0.00 75 1016.5
20260510061614 55 89 3.0 7.0 0.00 0.00 0.00 76 1016.6
20260510060602 55 35 3.0 7.0 0.00 0.00 0.00 77 1016.5
20260510055541 54 45 2.0 7.0 0.00 0.00 0.00 78 1016.6
20260510054548 54 95 1.0 3.0 0.00 0.00 0.00 79 1016.6
20260510053616 53 104 2.0 10.0 0.00 0.00 0.00 80 1016.6
20260510052549 53 177 2.0 6.0 0.00 0.00 0.00 80 1016.6
20260510051534 52 162 2.0 6.0 0.00 0.00 0.00 81 1016.5
20260510050520 52 317 2.0 3.0 0.00 0.00 0.00 82 1016.5
20260510045600 51 57 1.0 4.0 0.00 0.00 0.00 83 1016.5
20260510044607 51 108 1.0 6.0 0.00 0.00 0.00 84 1016.4
20260510043528 51 118 1.0 3.0 0.00 0.00 0.00 85 1016.3
20260510042604 51 305 1.0 4.0 0.00 0.00 0.00 86 1016.2
20260510041550 51 36 0.0 3.0 0.00 0.00 0.00 87 1016.2
20260510040613 51 0.0 1.0 0.00 0.00 0.00 87 1016.3
20260510035519 51 201 0.0 2.0 0.00 0.00 0.00 87 1016.4
20260510034556 51 79 1.0 2.0 0.00 0.00 0.00 87 1016.5
20260510033542 51 218 1.0 3.0 0.00 0.00 0.00 87 1016.4
20260510032524 51 18 0.0 2.0 0.00 0.00 0.00 87 1016.5
20260510031622 51 241 1.0 2.0 0.00 0.00 0.00 86 1016.5
20260510030542 51 179 0.0 2.0 0.00 0.00 0.00 86 1016.5
20260510025524 51 0.0 0.0 0.00 0.00 0.00 85 1016.4
20260510024611 51 183 1.0 2.0 0.00 0.00 0.00 85 1016.6
20260510023553 51 262 0.0 2.0 0.00 0.00 0.00 85 1016.6
20260510022530 51 144 0.0 3.0 0.00 0.00 0.00 85 1016.6
20260510021614 51 0.0 0.0 0.00 0.00 0.00 85 1016.7
20260510020635 51 210 0.0 2.0 0.00 0.00 0.00 84 1016.7
20260510015539 51 0.0 0.0 0.00 0.00 0.00 84 1016.8
20260510014520 51 119 0.0 2.0 0.00 0.00 0.00 83 1016.8
20260510013646 51 204 0.0 3.0 0.00 0.00 0.00 83 1016.8
20260510012548 51 0.0 0.0 0.00 0.00 0.00 83 1016.7
20260510011526 52 0.0 0.0 0.00 0.00 0.00 82 1016.8
20260510010614 52 304 1.0 3.0 0.00 0.00 0.00 81 1016.9
20260510005559 52 110 0.0 2.0 0.00 0.00 0.00 80 1016.9
20260510004532 52 0.0 0.0 0.00 0.00 0.00 80 1017.0
20260510003521 52 0.0 0.0 0.00 0.00 0.00 80 1017.1
20260510002607 52 296 1.0 2.0 0.00 0.00 0.00 80 1017.2
20260510001539 52 257 0.0 1.0 0.00 0.00 0.00 80 1017.2
20260510000519 51 210 0.0 2.0 0.00 0.00 0.00 80 1017.2
20260509235626 51 325 0.0 3.0 0.00 0.00 0.00 79 1017.4
20260509234547 51 316 1.0 3.0 0.00 0.00 0.00 79 1017.4
20260509233533 51 288 0.0 2.0 0.00 0.00 0.00 79 1017.4
20260509232611 51 269 0.0 1.0 0.00 0.00 0.00 78 1017.5
20260509231610 51 319 1.0 3.0 0.00 0.00 0.00 78 1017.5
20260509230534 51 297 1.0 2.0 0.00 0.00 0.00 76 1017.5
20260509225615 52 0.0 0.0 0.00 0.00 0.00 74 1017.6
20260509224557 52 309 1.0 2.0 0.00 0.00 0.00 73 1017.5
20260509223600 53 307 1.0 2.0 0.00 0.00 0.00 72 1017.4
20260509222523 53 315 0.0 2.0 0.00 0.00 0.00 71 1017.5
20260509221603 54 228 0.0 1.0 0.00 0.00 0.00 70 1017.3
20260509220543 54 0.0 1.0 0.00 0.00 0.00 69 1017.4
20260509215528 54 299 0.0 2.0 0.00 0.00 0.00 68 1017.4
20260509214608 55 0.0 0.0 0.00 0.00 0.00 67 1017.6
20260509213549 55 338 1.0 6.0 0.00 0.00 0.00 66 1017.3
20260509212531 55 332 2.0 4.0 0.00 0.00 0.00 66 1017.4
20260509211631 55 329 2.0 3.0 0.00 0.00 0.00 65 1017.4
20260509210552 56 332 3.0 6.0 0.00 0.00 0.00 64 1017.2
20260509205631 56 275 0.0 2.0 0.00 0.00 0.00 64 1017.2
20260509204616 57 248 0.0 3.0 0.00 0.00 0.00 63 1017.2
20260509203558 57 315 0.0 3.0 0.00 0.00 0.00 64 1017.2
20260509202537 57 280 1.0 3.0 0.00 0.00 0.00 64 1017.2
20260509201544 57 0.0 2.0 0.00 0.00 0.00 64 1017.3
20260509200607 58 253 0.0 3.0 0.00 0.00 0.00 64 1017.3
20260509195551 58 277 1.0 3.0 0.00 0.00 0.00 63 1017.2
20260509194559 59 296 1.0 4.0 0.00 0.00 0.00 63 1017.1
20260509193519 59 308 1.0 8.0 0.00 0.00 0.00 63 1017.0
20260509192556 60 305 1.0 4.0 0.00 0.00 0.00 63 1016.9
20260509191544 60 311 2.0 6.0 0.00 0.00 0.00 62 1017.0
20260509190529 61 345 2.0 6.0 0.00 0.00 0.00 60 1017.1
20260509185630 62 3 2.0 7.0 0.00 0.00 0.00 59 1017.0
20260509184554 63 84 2.0 7.0 0.00 0.00 0.00 58 1017.0
20260509183534 64 336 3.0 8.0 0.00 0.00 0.00 56 1017.0
20260509182518 65 345 4.0 10.0 0.00 0.00 0.00 53 1016.9
20260509181605 66 341 2.0 8.0 0.00 0.00 0.00 51 1016.9
20260509180551 66 100 2.0 7.0 0.00 0.00 0.00 50 1016.8
20260509175526 67 313 3.0 8.0 0.00 0.00 0.00 49 1016.8
20260509174613 67 339 3.0 9.0 0.00 0.00 0.00 48 1016.6
20260509173550 68 225 2.0 6.0 0.00 0.00 0.00 47 1016.6
20260509172537 68 305 2.0 8.0 0.00 0.00 0.00 48 1016.6
20260509171611 68 319 3.0 10.0 0.00 0.00 0.00 48 1016.4
20260509170614 69 330 3.0 10.0 0.00 0.00 0.00 46 1016.4
20260509165602 70 298 1.0 6.0 0.00 0.00 0.00 45 1016.6
20260509164528 70 29 2.0 8.0 0.00 0.00 0.00 46 1016.6
20260509163611 69 246 2.0 7.0 0.00 0.00 0.00 47 1016.6
20260509162549 70 285 2.0 7.0 0.00 0.00 0.00 47 1016.6
20260509161525 71 278 2.0 8.0 0.00 0.00 0.00 46 1016.6
20260509160610 72 51 3.0 6.0 0.00 0.00 0.00 43 1016.6
20260509155601 70 48 1.0 10.0 0.00 0.00 0.00 45 1016.6
20260509154533 69 317 2.0 4.0 0.00 0.00 0.00 44 1016.6
20260509153517 71 339 2.0 6.0 0.00 0.00 0.00 44 1016.6
20260509152554 73 100 2.0 7.0 0.00 0.00 0.00 41 1016.6
20260509151533 72 257 1.0 4.0 0.00 0.00 0.00 44 1016.7
20260509150519 72 327 2.0 7.0 0.00 0.00 0.00 42 1016.7
20260509145558 70 318 2.0 6.0 0.00 0.00 0.00 45 1016.8
20260509144603 71 222 1.0 4.0 0.00 0.00 0.00 43 1016.9
20260509143523 72 74 4.0 10.0 0.00 0.00 0.00 41 1016.8
20260509142610 72 348 2.0 7.0 0.00 0.00 0.00 42 1017.0
20260509141611 73 65 2.0 4.0 0.00 0.00 0.00 40 1017.0
20260509140538 72 359 3.0 8.0 0.00 0.00 0.00 41 1017.0
20260509135525 73 142 2.0 7.0 0.00 0.00 0.00 41 1017.1
20260509134613 72 115 3.0 7.0 0.00 0.00 0.00 43 1017.2
20260509133550 71 57 3.0 7.0 0.00 0.00 0.00 43 1017.1
20260509132526 71 8 2.0 4.0 0.00 0.00 0.00 42 1017.3
20260509131610 71 164 2.0 6.0 0.00 0.00 0.00 42 1017.6
20260509130542 71 108 3.0 9.0 0.00 0.00 0.00 44 1017.6
20260509125524 71 90 2.0 8.0 0.00 0.00 0.00 44 1017.7
20260509124605 70 95 3.0 7.0 0.00 0.00 0.00 43 1018.0
20260509123546 71 78 3.0 6.0 0.00 0.00 0.00 43 1017.9
20260509122547 70 88 2.0 6.0 0.00 0.00 0.00 44 1018.1
20260509121717 70 157 2.0 6.0 0.00 0.00 0.00 44 1018.2
20260509120559 70 95 1.0 6.0 0.00 0.00 0.00 45 1018.2
20260509115538 70 55 3.0 9.0 0.00 0.00 0.00 45 1018.2
20260509114614 70 157 2.0 4.0 0.00 0.00 0.00 44 1018.4
20260509113559 70 157 2.0 7.0 0.00 0.00 0.00 43 1018.5
20260509112545 69 51 3.0 8.0 0.00 0.00 0.00 45 1018.6
20260509111552 69 85 2.0 7.0 0.00 0.00 0.00 46 1018.7
20260509110519 69 3 2.0 7.0 0.00 0.00 0.00 47 1018.8
20260509105602 69 53 2.0 8.0 0.00 0.00 0.00 45 1018.9
20260509104543 69 108 2.0 8.0 0.00 0.00 0.00 45 1018.9
20260509103522 67 343 2.0 8.0 0.00 0.00 0.00 47 1019.0
20260509102602 69 74 1.0 7.0 0.00 0.00 0.00 45 1019.0
20260509101602 69 141 2.0 8.0 0.00 0.00 0.00 45 1019.1
20260509100527 68 87 3.0 6.0 0.00 0.00 0.00 45 1019.1
20260509095627 68 88 4.0 8.0 0.00 0.00 0.00 44 1019.2
20260509094551 67 130 2.0 7.0 0.00 0.00 0.00 47 1019.1
20260509093533 67 77 3.0 8.0 0.00 0.00 0.00 47 1019.2
20260509092542 67 89 3.0 6.0 0.00 0.00 0.00 47 1019.2
20260509091604 67 60 2.0 6.0 0.00 0.00 0.00 48 1019.2
20260509090542 67 84 2.0 6.0 0.00 0.00 0.00 47 1019.3
20260509085527 66 70 2.0 6.0 0.00 0.00 0.00 48 1019.2
20260509084612 65 97 4.0 8.0 0.00 0.00 0.00 49 1019.3
20260509083553 65 87 3.0 8.0 0.00 0.00 0.00 50 1019.2
20260509082540 65 55 3.0 9.0 0.00 0.00 0.00 51 1019.3
20260509081518 64 100 1.0 7.0 0.00 0.00 0.00 56 1019.3
20260509080604 64 8 1.0 6.0 0.00 0.00 0.00 59 1019.4
20260509075545 63 62 1.0 4.0 0.00 0.00 0.00 61 1019.6